This is the latest recevied weather packets stored in our database for station/object KJ5SC. If no packets are shown the sender has not sent any weather packets the latest 10 day(s).
| Time | Temp. | Humidity | Pressure | Rain* | Wind** | Luminosity | Snow |
|---|---|---|---|---|---|---|---|
| 1787688414 | 36.67° C | 42% | 1018.3 hPa | 0 mm | - | 94 W/m² | - |
| 1787688109 | 36.67° C | 43% | 1018.1 hPa | 0 mm | - | 92 W/m² | - |
| 1787687805 | 36.67° C | 42% | 1018.4 hPa | 0 mm | - | 464 W/m² | - |
| 1787687505 | 36.67° C | 44% | 1018.4 hPa | 0 mm | - | 681 W/m² | - |
| 1787687201 | 36.11° C | 46% | 1018.4 hPa | 0 mm | - | 688 W/m² | - |
| 1787686896 | 36.67° C | 47% | 1018.6 hPa | 0 mm | - | 659 W/m² | - |
| 1787686593 | 36.11° C | 48% | 1018.7 hPa | 0 mm | - | 755 W/m² | - |
| 1787686287 | 36.11° C | 48% | 1018.7 hPa | 0 mm | - | 312 W/m² | - |
| 1787685983 | 36.11° C | 49% | 1018.8 hPa | 0 mm | - | 639 W/m² | - |
| 1787685679 | 35.56° C | 49% | 1018.8 hPa | 0 mm | - | 794 W/m² | - |
| 1787685378 | 36.67° C | 48% | 1018.8 hPa | 0 mm | - | 262 W/m² | - |
| 1787685073 | 36.67° C | 48% | 1018.9 hPa | 0 mm | - | 626 W/m² | - |
| 1787684769 | 36.67° C | 49% | 1019.3 hPa | 0 mm | - | 787 W/m² | - |
| 1787684468 | 36.11° C | 49% | 1019.3 hPa | 0 mm | - | 727 W/m² | - |
| 1787684163 | 36.11° C | 49% | 1019 hPa | 0 mm | - | 754 W/m² | - |
| 1787683862 | 35.56° C | 51% | 1019.3 hPa | 0 mm | - | 619 W/m² | - |
| 1787683558 | 35.56° C | 50% | 1019.3 hPa | 0 mm | - | 627 W/m² | - |
| 1787683253 | 35° C | 53% | 1019.4 hPa | 0 mm | - | 640 W/m² | - |
| 1787682950 | 35° C | 54% | 1019.4 hPa | 0 mm | - | 446 W/m² | - |
| 1787682646 | 34.44° C | 54% | 1019.4 hPa | 0 mm | - | 904 W/m² | - |
| 1787682342 | 34.44° C | 54% | 1019.5 hPa | 0 mm | - | 266 W/m² | - |
| 1787682037 | 34.44° C | 53% | 1019.3 hPa | 0 mm | - | 242 W/m² | - |
| 1787681732 | 34.44° C | 54% | 1019.5 hPa | 0 mm | - | 312 W/m² | - |
| 1787681427 | 34.44° C | 54% | 1019.9 hPa | 0 mm | - | 282 W/m² | - |
| 1787681127 | 35° C | 54% | 1019.9 hPa | 0 mm | - | 471 W/m² | - |
* Rain latest hour (hover to see other rain measurements)
** Current wind speed in m/s (hover to see current wind gust speed)